Location: Colonia Mina de C?rbuni
(46.1667°N, 22.7167°E)
Time: 06:18:27
(UTC+00:00)

Tiros 1 - Pass Details

Date: 30 April 2024
Orbit: 624 x 657 km, 48.4° (Epoch: 25 May)

Event Time Altitude Azimuth Distance (km) Brightness Sun altitude
Rises 18:21:58 0° 222° (SW) 2,956 10.7 -7.8°
Reaches altitude 10° 18:24:25 10° 215° (SW) 2,043 9.8 -8.1°
Maximum altitude 18:28:47 39° 147° (SSE) 963 7.6 -8.8°
Drops below altitude 10° 18:33:09 10° 79° (ENE) 2,031 9.3 -9.4°
Sets 18:35:34 0° 71° (ENE) 2,937 10.2 -9.8°
